map of MNL home
Great Circle Mapper logo
MNL - Airport
Location
City:  Manila, Philippines
Name:Ninoy Aquino International Airport
ICAO / IATA:RPLL / MNL

Details
Type:Airport (Aerodrome, Airfield)
Use:Public/Civil, Military, International (customs port of entry)
Latitude:1430'31"N (14.508647)
Longitude:12101'10"E (121.019581)
Datum:WGS 1984
Elevation:75 ft (23 m)
Runways:2
Longest:12261 × 197 ft (3737 × 60 m), paved

Time
Time Zone:UTC+8
Local Time:

Weather
METAR:RPLL 161300Z 28005KT 9999 SCT025 BKN100 28/24 Q1012 NOSIG RMK A2988
TAF:RPLL 161100Z 1612/1718 32008KT 9999 FEW025 SCT100 TX32/1706Z TN25/1621Z
TEMPO 1612/1618 27004KT FEW025 BKN300
TEMPO 1618/1624 VRB02KT SCT023 SCT090

Related Locations
Nearby:
Farthest:SWYM: 12418 mi / 19985 km
Pontes e Lacerda [Fazenda Anhanguera], MT, BR

Find:

   beyond  
but within

Other Information
Maps:
NOTAMs:
Links:
Sources:

  
flag of Philippines   

Airport Diagram

Airport diagram for MNL

Airport diagram (OBSOLETE) from NGA

Sectional Chart

Flight Planning
at skyvector.com

Satellite Image

Google Maps Satellite View

 

Copyright © 2004-2014 Karl L. Swartz. All rights reserved.
The Great Circle Mapper name and logo are trademarks of the Great Circle Mapper.
All other trademarks mentioned herein belong to their respective owners.
Please see credits for attibutions and further copyright information.

  Follow gcmap on Facebook Follow gcmap on Twitter

hCard Microformat

Geo Microformat